Torna al catalogo

GESAT GEN 1

AttivoComunicazioniSSO
NORAD 62612·PAYLOAD·🇫🇷 France

Lanciato Jan 14, 2025 da Vandenberg Space Force Base

Loading…

Prossimi Passaggi (prossime 24 ore)

TLE

AggiornatoSource: Space-Track

Epoca: Sep 14, 2026, 11:14 UTC

1 62612U 25009D   26257.46838658  .00006974  00000-0  24361-3 0  9998
2 62612  97.3970 339.0557 0001526  76.5312 283.6098 15.29888351 92562

Traccia GESAT GEN 1 in tempo reale con AllMySat

Download on the App Store